period_start,C,m1,H,J0,J1,J2,J3,J4,J5,JA,JB,JC,JD,JJ,JK,JN,#
2016-06-27 00:01:49,0.01,0.67,0.00,25.67,29.40,32.07,14.16,44.47,1010.68,2029.49,3244.02,2861.98,3242.01,599.92,587.18,52.94,0000 0000 0000 0000 000000
2016-06-27 00:06:50,-0.01,0.67,0.00,25.68,29.40,32.08,14.19,44.42,1010.76,2029.39,3244.00,2861.92,3242.00,600.21,587.39,52.99,0000 0000 0000 0000 000000
2016-06-27 00:11:51,0.03,0.67,0.00,25.70,29.40,32.10,14.23,44.33,1010.77,2029.38,3243.86,2861.48,3241.98,599.72,587.10,53.04,0000 0000 0000 0000 000000
2016-06-27 00:16:53,0.01,0.67,0.00,25.70,29.40,32.06,14.24,44.48,1011.00,2029.26,3243.31,2861.11,3241.85,600.21,587.59,53.09,0000 0000 0000 0000 000000
2016-06-27 00:21:54,0.03,0.67,0.00,25.71,29.40,32.03,14.21,44.49,1011.24,2029.49,3243.03,2861.04,3241.48,599.95,587.51,53.14,0000 0000 0000 0000 000000
2016-06-27 00:26:55,0.02,0.67,0.00,25.70,29.40,32.04,14.27,44.44,1011.24,2029.66,3242.99,2861.02,3241.14,599.95,587.55,53.19,0000 0000 0000 0000 000000
2016-06-27 00:31:56,0.01,0.67,0.00,25.71,29.40,32.07,14.18,44.48,1011.27,2029.66,3242.23,2860.98,3241.00,599.74,587.30,53.24,0000 0000 0000 0000 000000
2016-06-27 00:36:57,0.07,0.67,0.00,25.72,29.41,32.03,14.30,44.47,1011.61,2029.80,3241.59,2860.66,3240.65,599.86,587.55,53.29,0000 0000 0000 0000 000000
2016-06-27 00:41:59,0.02,0.68,0.00,25.75,29.41,32.03,14.30,44.59,1011.73,2029.95,3240.95,2860.07,3240.04,600.20,587.91,53.34,0000 0000 0000 0000 000000
2016-06-27 00:47:00,0.02,0.68,0.00,25.75,29.42,32.03,14.18,44.36,1011.73,2029.99,3240.09,2859.99,3239.80,599.93,587.66,53.39,0000 0000 0000 0000 000000
2016-06-27 00:52:01,0.02,0.68,0.00,25.76,29.42,32.07,14.20,44.38,1011.73,2029.99,3239.98,2859.69,3239.22,600.21,587.76,53.45,0000 0000 0000 0000 000000
2016-06-27 00:57:02,0.02,0.68,0.00,25.77,29.42,32.11,14.22,44.34,1011.73,2029.99,3239.33,2859.04,3239.00,599.87,587.55,53.50,0000 0000 0000 0000 000000
2016-06-27 01:02:04,0.02,0.68,0.00,25.78,29.42,32.06,14.22,44.25,1011.73,2029.99,3238.74,2858.98,3238.69,599.75,587.46,53.55,0000 0000 0000 0000 000000
2016-06-27 01:07:05,0.03,0.68,0.00,25.80,29.42,32.04,14.23,44.57,1011.73,2029.99,3238.01,2858.31,3238.03,600.20,587.76,53.60,0000 0000 0000 0000 000000
2016-06-27 01:12:06,0.01,0.69,0.00,25.82,29.42,32.05,14.20,44.29,1011.73,2029.99,3237.62,2858.01,3237.97,600.06,587.53,53.65,0000 0000 0000 0000 000000
2016-06-27 01:17:08,0.02,0.69,0.00,25.83,29.42,32.06,14.28,44.42,1011.73,2030.00,3237.02,2857.98,3237.30,600.06,587.60,53.70,0000 0000 0000 0000 000000
2016-06-27 01:22:09,0.02,0.69,0.00,25.83,29.42,32.08,14.19,44.48,1011.74,2030.00,3236.87,2857.63,3237.01,599.95,587.47,53.75,0000 0000 0000 0000 000000
2016-06-27 01:27:10,0.02,0.69,0.00,25.86,29.42,32.04,14.20,44.38,1011.76,2030.00,3236.31,2857.09,3236.98,600.02,587.64,53.80,0000 0000 0000 0000 000000
2016-06-27 01:32:12,0.02,0.69,0.00,25.88,29.43,32.06,14.20,44.42,1011.96,2030.00,3235.98,2856.99,3236.24,600.22,587.80,53.85,0000 0000 0000 0000 000000
2016-06-27 01:37:13,0.01,0.69,0.00,25.89,29.45,32.10,14.30,44.53,1012.22,2030.00,3235.51,2856.89,3236.01,600.45,588.17,53.90,0000 0000 0000 0000 000000
2016-06-27 01:42:14,0.02,0.69,0.00,25.90,29.45,32.08,14.29,44.38,1012.22,2030.00,3235.03,2856.32,3235.98,600.38,588.14,53.95,0000 0000 0000 0000 000000
2016-06-27 01:47:15,0.01,0.69,0.00,25.91,29.45,32.10,14.17,44.35,1012.22,2030.00,3234.98,2856.03,3235.66,599.59,587.31,54.00,0000 0000 0000 0000 000000
2016-06-27 01:52:17,0.01,0.69,0.00,25.93,29.45,32.10,14.17,44.24,1012.19,2029.98,3234.57,2855.99,3235.04,599.94,587.71,54.05,0000 0000 0000 0000 000000
2016-06-27 01:57:18,0.02,0.69,0.00,25.94,29.47,32.11,14.23,44.52,1012.15,2029.96,3234.01,2855.44,3234.90,600.10,587.75,54.10,0000 0000 0000 0000 000000
2016-06-27 02:02:19,0.02,0.70,0.00,25.96,29.47,32.10,14.18,44.40,1012.17,2029.92,3233.51,2855.03,3234.21,599.95,587.49,54.15,0000 0000 0000 0000 000000
2016-06-27 02:07:20,0.04,0.70,0.00,25.97,29.47,32.15,14.20,44.38,1012.22,2029.91,3232.46,2854.65,3233.75,599.92,587.54,54.20,0000 0000 0000 0000 000000
2016-06-27 02:12:21,0.00,0.70,0.00,25.99,29.49,32.12,14.23,44.32,1012.24,2029.50,3231.09,2854.01,3233.00,600.25,587.78,54.25,0000 0000 0000 0000 000000
2016-06-27 02:17:22,0.03,0.70,0.00,25.98,29.50,32.13,14.26,44.40,1012.50,2029.41,3230.07,2853.69,3232.53,600.48,588.17,54.30,0000 0000 0000 0000 000000
2016-06-27 02:22:24,0.01,0.70,0.00,25.99,29.50,32.14,14.19,44.33,1012.70,2029.27,3229.74,2853.10,3232.02,599.94,587.78,54.35,0000 0000 0000 0000 000000
2016-06-27 02:27:25,-0.01,0.70,0.00,25.99,29.51,32.13,14.18,44.22,1012.71,2029.07,3229.27,2853.02,3232.00,599.95,587.76,54.41,0000 0000 0000 0000 000000
2016-06-27 02:32:26,-0.00,0.70,0.00,26.00,29.52,32.17,14.22,44.34,1012.71,2029.01,3229.14,2853.01,3231.98,599.96,587.82,54.46,0000 0000 0000 0000 000000
2016-06-27 02:37:28,0.00,0.70,0.00,26.02,29.52,32.16,14.13,44.36,1012.72,2029.00,3229.00,2853.00,3231.50,599.92,587.68,54.51,0000 0000 0000 0000 000000
2016-06-27 02:42:29,-0.00,0.70,0.00,26.03,29.55,32.17,14.25,44.37,1012.74,2029.00,3229.00,2853.00,3231.35,600.06,587.93,54.56,0000 0000 0000 0000 000000
2016-06-27 02:47:30,0.01,0.70,0.00,26.05,29.55,32.21,14.21,44.14,1012.73,2029.00,3228.61,2852.97,3231.03,600.36,588.02,54.61,0000 0000 0000 0000 000000
2016-06-27 02:52:31,0.03,0.70,0.00,26.05,29.57,32.21,14.21,44.33,1012.73,2029.00,3227.82,2852.48,3230.94,599.78,587.54,54.66,0000 0000 0000 0000 000000
2016-06-27 02:57:33,0.03,0.71,0.00,26.08,29.57,32.20,14.25,44.38,1012.72,2029.00,3226.98,2852.00,3230.11,600.31,587.92,54.71,0000 0000 0000 0000 000000
2016-06-27 03:02:34,0.02,0.71,0.00,26.08,29.59,32.20,14.19,44.20,1012.88,2029.00,3226.32,2851.82,3230.00,599.61,587.36,54.76,0000 0000 0000 0000 000000
2016-06-27 03:07:35,0.00,0.71,0.00,26.09,29.60,32.21,14.23,44.26,1013.20,2028.97,3226.12,2851.33,3229.96,600.36,588.31,54.81,0000 0000 0000 0000 000000
2016-06-27 03:12:36,-0.00,0.71,0.00,26.10,29.61,32.22,14.23,44.17,1013.24,2028.89,3226.20,2851.29,3229.89,600.28,588.35,54.86,0000 0000 0000 0000 000000
2016-06-27 03:17:38,-0.00,0.71,0.00,26.11,29.62,32.22,14.21,44.14,1013.37,2028.82,3226.06,2851.12,3229.71,599.98,587.96,54.91,0000 0000 0000 0000 000000
2016-06-27 03:22:39,-0.01,0.71,0.00,26.12,29.63,32.24,14.24,44.37,1013.26,2028.52,3226.02,2851.04,3229.22,600.16,587.99,54.96,0000 0000 0000 0000 000000
2016-06-27 03:27:41,-0.03,0.70,0.00,26.12,29.65,32.26,14.29,44.52,1013.34,2028.20,3226.00,2851.00,3229.03,599.90,587.89,55.01,0000 0000 0000 0000 000000
2016-06-27 03:32:41,-0.01,0.70,0.00,26.13,29.65,32.26,14.26,44.37,1013.64,2028.06,3225.98,2851.00,3229.00,600.28,588.28,55.06,0000 0000 0000 0000 000000
2016-06-27 03:37:43,-0.00,0.70,0.00,26.15,29.67,32.33,14.16,44.42,1013.68,2028.01,3225.96,2850.99,3229.00,599.76,587.81,55.11,0000 0000 0000 0000 000000
2016-06-27 03:42:44,0.00,0.70,0.00,26.16,29.67,32.32,14.15,44.48,1013.69,2028.00,3225.95,2850.97,3228.99,599.63,587.57,55.16,0000 0000 0000 0000 000000
2016-06-27 03:47:45,0.00,0.70,0.00,26.17,29.70,32.34,14.27,44.54,1013.70,2028.00,3225.93,2850.97,3228.98,600.36,588.45,55.21,0000 0000 0000 0000 000000
2016-06-27 03:52:46,0.01,0.70,0.00,26.16,29.70,32.31,14.17,44.42,1013.71,2028.00,3225.75,2850.91,3228.90,599.76,587.96,55.27,0000 0000 0000 0000 000000
2016-06-27 03:57:47,0.02,0.71,0.00,26.18,29.71,32.34,14.19,44.48,1013.73,2028.00,3225.43,2850.54,3228.51,599.84,587.88,55.32,0000 0000 0000 0000 000000
2016-06-27 04:02:49,0.02,0.71,0.00,26.20,29.72,32.34,14.22,44.54,1013.72,2027.98,3225.06,2850.05,3228.02,599.99,588.00,55.37,0000 0000 0000 0000 000000
2016-06-27 04:07:50,0.00,0.71,0.00,26.21,29.73,32.34,14.21,44.47,1014.06,2027.96,3225.00,2849.99,3228.00,600.10,588.26,55.42,0000 0000 0000 0000 000000
2016-06-27 04:12:51,-0.02,0.71,0.00,26.22,29.75,32.37,14.22,44.28,1014.18,2027.79,3225.00,2849.96,3228.00,599.69,587.93,55.47,0000 0000 0000 0000 000000
2016-06-27 04:17:52,-0.01,0.71,0.00,26.21,29.75,32.36,14.19,44.20,1014.18,2027.55,3224.98,2849.77,3227.98,600.00,588.22,55.52,0000 0000 0000 0000 000000
2016-06-27 04:22:53,0.01,0.71,0.00,26.22,29.76,32.39,14.28,44.21,1014.19,2027.59,3224.95,2849.55,3227.92,600.32,588.58,55.57,0000 0000 0000 0000 000000
2016-06-27 04:27:54,-0.01,0.71,0.00,26.22,29.77,32.39,14.26,44.30,1014.18,2027.23,3224.47,2849.10,3227.46,600.40,588.69,55.62,0000 0000 0000 0000 000000
2016-06-27 04:32:55,0.01,0.71,0.00,26.22,29.77,32.42,14.21,44.22,1014.18,2027.25,3224.04,2849.02,3227.09,599.76,587.98,55.67,0000 0000 0000 0000 000000
2016-06-27 04:37:57,0.00,0.71,0.00,26.23,29.77,32.42,14.27,44.21,1014.20,2027.10,3223.63,2848.94,3226.91,600.11,588.26,55.72,0000 0000 0000 0000 000000
2016-06-27 04:42:58,0.01,0.71,0.00,26.24,29.77,32.42,14.23,44.26,1014.50,2027.04,3223.14,2848.65,3226.61,599.88,588.25,55.77,0000 0000 0000 0000 000000
2016-06-27 04:47:59,0.01,0.71,0.00,26.22,29.79,32.41,14.27,44.17,1014.65,2027.04,3223.07,2848.37,3226.34,599.91,588.34,55.82,0000 0000 0000 0000 000000
2016-06-27 04:53:00,0.01,0.71,0.00,26.24,29.80,32.42,14.13,44.24,1014.65,2027.07,3223.01,2848.25,3226.20,599.63,588.25,55.87,0000 0000 0000 0000 000000
2016-06-27 04:58:02,0.01,0.71,0.00,26.23,29.80,32.41,14.17,44.31,1014.66,2027.05,3223.00,2848.04,3226.02,600.01,588.42,55.92,0000 0000 0000 0000 000000
2016-06-27 05:03:03,-0.00,0.71,0.00,26.24,29.81,32.41,14.31,44.24,1014.66,2027.02,3222.95,2848.01,3226.00,599.88,588.25,55.97,0000 0000 0000 0000 000000
2016-06-27 05:08:04,0.00,0.71,0.00,26.23,29.82,32.46,14.23,44.20,1014.66,2027.01,3222.73,2848.00,3225.99,600.15,588.54,56.02,0000 0000 0000 0000 000000
2016-06-27 05:13:05,0.01,0.71,0.00,26.26,29.82,32.48,14.18,44.23,1014.69,2027.00,3222.27,2848.00,3225.97,599.99,588.36,56.07,0000 0000 0000 0000 000000
2016-06-27 05:18:06,0.00,0.71,0.00,26.26,29.83,32.52,14.21,44.23,1014.80,2027.00,3222.05,2847.99,3225.94,599.79,588.28,56.12,0000 0000 0000 0000 000000
2016-06-27 05:23:08,0.00,0.71,0.00,26.26,29.85,32.49,14.22,44.29,1015.04,2027.00,3222.01,2847.96,3225.76,600.04,588.67,56.17,0000 0000 0000 0000 000000
2016-06-27 05:28:09,0.01,0.71,0.00,26.25,29.85,32.50,14.18,44.29,1014.90,2027.00,3222.01,2847.88,3225.42,599.85,588.39,56.22,0000 0000 0000 0000 000000
2016-06-27 05:33:11,0.01,0.71,0.00,26.26,29.85,32.53,14.26,44.33,1014.80,2027.00,3222.00,2847.57,3225.14,600.00,588.52,56.28,0000 0000 0000 0000 000000
2016-06-27 05:38:12,0.01,0.71,0.00,26.26,29.87,32.47,14.22,44.13,1015.01,2027.00,3221.99,2847.15,3225.01,600.14,588.76,56.33,0000 0000 0000 0000 000000
2016-06-27 05:43:13,0.00,0.71,0.00,26.26,29.87,32.56,14.25,44.01,1015.15,2027.00,3221.96,2847.09,3225.00,600.14,588.75,56.38,0000 0000 0000 0000 000000
2016-06-27 05:48:15,0.00,0.71,0.00,26.27,29.88,32.55,14.26,43.98,1015.15,2027.00,3221.87,2847.01,3225.00,599.93,588.64,56.43,0000 0000 0000 0000 000000
2016-06-27 05:53:16,0.00,0.71,0.00,26.28,29.90,32.56,14.30,44.38,1015.15,2026.99,3221.61,2847.01,3225.00,599.92,588.68,56.48,0000 0000 0000 0000 000000
2016-06-27 05:58:17,0.01,0.71,0.00,26.28,29.90,32.59,14.20,44.21,1015.17,2026.98,3221.19,2847.01,3225.00,599.88,588.59,56.53,0000 0000 0000 0000 000000
2016-06-27 06:03:19,0.00,0.71,0.00,26.25,29.90,32.73,14.28,44.34,1015.29,2026.98,3221.03,2847.00,3224.95,600.19,588.96,56.58,0000 0000 0000 0000 000000
2016-06-27 06:08:20,0.00,0.71,0.00,26.19,29.90,32.83,14.25,44.17,1015.38,2026.99,3221.02,2846.99,3224.93,599.58,588.50,56.63,0000 0000 0000 0000 000000
2016-06-27 06:13:21,0.00,0.71,0.00,26.11,29.90,32.84,14.21,44.24,1015.22,2026.98,3221.01,2846.99,3224.89,599.97,588.96,56.68,0000 0000 0000 0000 000000
2016-06-27 06:18:22,0.00,0.71,0.00,26.02,29.88,32.82,14.21,44.34,1015.19,2026.99,3221.01,2846.99,3224.94,599.75,588.88,56.73,0000 0000 0000 0000 000000
2016-06-27 06:23:24,0.00,0.71,0.00,25.93,29.86,32.79,14.28,44.24,1015.33,2026.99,3221.00,2846.99,3224.86,599.84,589.26,56.78,0000 0000 0000 0000 000000
2016-06-27 06:28:25,0.00,0.71,0.00,25.83,29.84,32.76,14.24,44.20,1015.53,2027.00,3221.00,2846.99,3224.95,599.88,589.81,56.83,0000 0000 0000 0000 000000
2016-06-27 06:33:26,0.01,0.71,0.00,25.75,29.81,32.73,14.36,44.27,1015.61,2027.01,3220.67,2846.99,3224.74,600.11,590.18,56.88,0000 0000 0000 0000 000000
2016-06-27 06:38:27,0.02,0.71,0.00,25.73,29.78,32.68,14.25,44.17,1015.64,2027.06,3220.04,2846.99,3224.25,599.69,589.75,56.93,0000 0000 0000 0000 000000
2016-06-27 06:43:29,0.01,0.71,0.00,25.76,29.76,32.64,14.32,44.18,1015.64,2027.19,3219.99,2846.98,3224.32,599.99,589.95,56.98,0000 0000 0000 0000 000000
2016-06-27 06:48:30,0.03,0.72,0.00,25.81,29.73,32.59,14.26,44.20,1015.64,2027.54,3219.99,2846.99,3224.40,599.73,589.66,57.03,0000 0000 0000 0000 000000
2016-06-27 06:53:32,0.02,0.72,0.00,25.84,29.71,32.57,14.24,44.33,1015.66,2027.90,3219.99,2846.99,3224.73,600.08,589.93,57.08,0000 0000 0000 0000 000000
2016-06-27 06:58:33,-0.00,0.72,0.00,25.88,29.68,32.51,14.38,44.32,1015.65,2027.96,3219.99,2846.99,3224.85,600.19,590.04,57.13,0000 0000 0000 0000 000000
2016-06-27 07:03:34,0.00,0.72,0.00,25.91,29.66,32.48,14.27,44.36,1015.84,2027.99,3219.99,2847.00,3224.67,600.16,589.90,57.19,0000 0000 0000 0000 000000
2016-06-27 07:08:36,0.00,0.72,0.00,25.94,29.64,32.43,14.24,44.35,1016.01,2027.99,3219.99,2847.00,3224.69,599.79,589.58,57.24,0000 0000 0000 0000 000000
2016-06-27 07:13:37,0.00,0.72,0.00,25.95,29.62,32.39,14.26,44.36,1016.10,2027.99,3219.98,2847.00,3224.54,600.05,589.90,57.29,0000 0000 0000 0000 000000
2016-06-27 07:18:38,-0.00,0.72,0.00,25.98,29.60,32.38,14.28,44.20,1016.11,2027.99,3219.98,2847.01,3224.59,600.18,589.98,57.34,0000 0000 0000 0000 000000
2016-06-27 07:23:40,0.00,0.72,0.00,26.01,29.60,32.34,14.35,44.15,1016.12,2027.99,3219.97,2847.00,3224.48,600.45,590.15,57.39,0000 0000 0000 0000 000000
2016-06-27 07:28:41,0.00,0.72,0.00,26.04,29.58,32.32,14.23,44.33,1016.13,2028.00,3219.87,2847.00,3224.21,600.10,589.83,57.44,0000 0000 0000 0000 000000
2016-06-27 07:33:42,0.01,0.72,0.00,26.06,29.57,32.26,14.38,44.34,1016.14,2028.00,3219.40,2847.00,3224.06,600.32,589.98,57.49,0000 0000 0000 0000 000000
2016-06-27 07:38:43,0.00,0.72,0.00,26.07,29.56,32.26,14.32,44.36,1016.17,2028.00,3219.05,2847.00,3224.01,600.12,589.78,57.54,0000 0000 0000 0000 000000
2016-06-27 07:43:44,0.00,0.72,0.00,26.08,29.55,32.20,14.24,44.26,1016.17,2028.01,3219.02,2846.99,3224.00,600.10,589.62,57.59,0000 0000 0000 0000 000000
2016-06-27 07:48:46,0.04,0.72,0.00,26.10,29.55,32.24,14.25,44.44,1016.15,2028.01,3218.71,2846.56,3223.62,600.06,589.78,57.64,0000 0000 0000 0000 000000
2016-06-27 07:53:47,0.02,0.72,0.00,26.11,29.55,32.22,14.24,44.23,1016.33,2028.02,3218.01,2845.86,3222.93,600.12,589.84,57.69,0000 0000 0000 0000 000000
2016-06-27 07:58:48,0.02,0.72,0.00,26.11,29.55,32.23,14.19,44.15,1016.57,2028.01,3217.99,2845.45,3222.55,599.78,589.48,57.74,0000 0000 0000 0000 000000
2016-06-27 08:03:50,0.02,0.73,0.00,26.13,29.55,32.21,14.29,44.09,1016.62,2028.01,3217.81,2845.11,3222.08,600.20,589.96,57.79,0000 0000 0000 0000 000000
2016-06-27 08:08:51,0.02,0.73,0.00,26.16,29.55,32.19,14.30,44.17,1016.62,2028.04,3217.04,2845.00,3221.98,600.04,589.87,57.84,0000 0000 0000 0000 000000
2016-06-27 08:13:53,0.01,0.73,0.00,26.18,29.55,32.19,14.29,44.17,1016.62,2028.01,3217.00,2844.93,3221.58,600.28,589.98,57.89,0000 0000 0000 0000 000000
2016-06-27 08:18:54,0.22,0.73,0.00,26.20,29.56,32.20,14.13,43.98,1016.62,2028.00,3215.03,2842.94,3219.20,599.67,589.36,57.94,0000 0000 0000 0000 000000
2016-06-27 08:23:55,0.03,0.74,0.00,26.22,29.57,32.18,14.24,44.08,1016.62,2028.01,3213.04,2841.01,3217.02,599.93,589.57,57.99,0000 0000 0000 0000 000000
2016-06-27 08:28:57,0.00,0.74,0.00,26.23,29.57,32.20,14.27,43.96,1016.63,2028.01,3213.00,2840.96,3217.00,599.87,589.61,58.05,0000 0000 0000 0000 000000
2016-06-27 08:33:58,0.01,0.74,0.00,26.24,29.57,32.19,14.27,44.04,1016.83,2028.01,3212.98,2840.80,3216.96,600.18,589.92,58.10,0000 0000 0000 0000 000000
2016-06-27 08:38:59,0.02,0.74,0.00,26.24,29.58,32.19,14.24,44.19,1017.09,2028.00,3212.58,2840.05,3216.36,600.08,589.91,58.15,0000 0000 0000 0000 000000
2016-06-27 08:44:01,0.19,0.75,0.00,26.25,29.60,32.22,14.18,43.92,1017.10,2028.00,3210.07,2837.27,3213.22,599.98,589.70,58.20,0000 0000 0000 0000 000000
2016-06-27 08:49:02,0.01,0.75,0.00,26.25,29.60,32.24,14.21,43.81,1017.12,2028.00,3209.65,2837.02,3212.98,599.79,589.64,58.25,0000 0000 0000 0000 000000
2016-06-27 08:54:03,0.01,0.75,0.00,26.27,29.61,32.24,14.25,44.04,1017.11,2028.00,3209.18,2837.00,3212.83,600.34,590.14,58.30,0000 0000 0000 0000 000000
2016-06-27 08:59:04,0.01,0.75,0.00,26.27,29.62,32.24,14.20,44.04,1017.12,2027.99,3209.01,2836.99,3212.19,599.64,589.62,58.35,0000 0000 0000 0000 000000
2016-06-27 09:04:05,0.00,0.75,0.00,26.29,29.63,32.26,14.24,44.19,1017.21,2027.99,3209.00,2836.91,3212.00,600.35,590.17,58.40,0000 0000 0000 0000 000000
2016-06-27 09:09:06,0.02,0.75,0.00,26.30,29.65,32.26,14.29,43.92,1017.44,2027.98,3208.90,2836.36,3212.00,599.98,589.84,58.45,0000 0000 0000 0000 000000
2016-06-27 09:14:08,0.02,0.75,0.00,26.31,29.65,32.24,14.27,43.99,1017.43,2027.98,3208.50,2836.05,3211.73,600.13,590.07,58.50,0000 0000 0000 0000 000000
2016-06-27 09:19:09,0.01,0.76,0.00,26.31,29.67,32.26,14.24,44.26,1017.54,2027.97,3208.01,2836.00,3211.04,600.03,590.04,58.55,0000 0000 0000 0000 000000
2016-06-27 09:24:10,0.00,0.76,0.00,26.30,29.67,32.25,14.27,44.10,1017.59,2027.97,3208.00,2836.00,3211.01,600.07,590.12,58.60,0000 0000 0000 0000 000000
2016-06-27 09:29:11,-0.01,0.76,0.00,26.32,29.68,32.28,14.28,44.01,1017.61,2027.88,3207.99,2835.95,3211.00,599.87,589.77,58.65,0000 0000 0000 0000 000000
2016-06-27 09:34:13,-0.03,0.76,0.00,26.32,29.70,32.29,14.22,43.87,1017.62,2027.57,3207.94,2835.70,3210.97,600.08,590.01,58.70,0000 0000 0000 0000 000000
2016-06-27 09:39:14,0.01,0.75,0.00,26.33,29.70,32.31,14.26,43.92,1017.69,2027.53,3207.87,2835.45,3210.94,599.92,589.93,58.75,0000 0000 0000 0000 000000
2016-06-27 09:44:15,0.01,0.75,0.00,26.35,29.71,32.31,14.27,43.92,1017.98,2027.36,3207.61,2835.20,3210.80,600.19,590.33,58.80,0000 0000 0000 0000 000000
2016-06-27 09:49:17,-0.00,0.76,0.00,26.36,29.72,32.31,14.32,43.98,1018.02,2027.17,3207.21,2835.05,3210.33,600.35,590.62,58.85,0000 0000 0000 0000 000000
2016-06-27 09:54:18,0.00,0.76,0.00,26.38,29.72,32.29,14.33,44.01,1018.08,2027.09,3207.04,2835.02,3210.08,600.50,590.66,58.90,0000 0000 0000 0000 000000
2016-06-27 09:59:19,-0.00,0.75,0.00,26.39,29.73,32.29,14.29,43.93,1018.08,2027.04,3207.01,2835.00,3210.01,600.26,590.41,58.95,0000 0000 0000 0000 000000
2016-06-27 10:04:20,-0.00,0.75,0.00,26.38,29.75,32.29,14.26,44.01,1018.08,2027.03,3207.00,2835.00,3210.00,600.48,590.52,59.00,0000 0000 0000 0000 000000
2016-06-27 10:09:22,0.00,0.75,0.00,26.40,29.75,32.32,14.29,43.98,1018.09,2027.01,3207.00,2835.00,3210.00,600.38,590.49,59.06,0000 0000 0000 0000 000000
2016-06-27 10:14:23,0.00,0.75,0.00,26.44,29.77,32.31,14.23,44.02,1018.09,2027.01,3206.98,2834.99,3210.00,599.64,589.63,59.11,0000 0000 0000 0000 000000
2016-06-27 10:19:24,0.00,0.75,0.00,26.44,29.77,32.32,14.18,43.90,1018.15,2027.01,3206.96,2834.96,3209.97,599.58,589.58,59.16,0000 0000 0000 0000 000000
2016-06-27 10:24:25,0.00,0.75,0.00,26.45,29.77,32.31,14.26,43.96,1018.48,2027.00,3206.93,2834.92,3209.96,600.06,590.26,59.21,0000 0000 0000 0000 000000
2016-06-27 10:29:26,0.03,0.76,0.00,26.45,29.79,32.34,14.23,43.93,1018.57,2027.00,3206.39,2834.46,3209.47,599.73,590.03,59.26,0000 0000 0000 0000 000000
2016-06-27 10:34:27,0.01,0.76,0.00,26.47,29.80,32.33,14.28,44.12,1018.57,2027.00,3206.10,2834.15,3209.13,600.14,590.39,59.31,0000 0000 0000 0000 000000
2016-06-27 10:39:29,0.01,0.76,0.00,26.48,29.81,32.34,14.24,44.08,1018.57,2027.00,3205.94,2834.04,3209.01,600.15,590.25,59.36,0000 0000 0000 0000 000000
2016-06-27 10:44:30,0.02,0.76,0.00,26.51,29.82,32.37,14.19,44.19,1018.58,2027.00,3205.26,2833.88,3208.60,599.82,589.97,59.41,0000 0000 0000 0000 000000
2016-06-27 10:49:31,0.06,0.76,0.00,26.52,29.84,32.39,14.18,44.01,1018.60,2026.99,3204.55,2833.00,3207.54,599.35,589.62,59.46,0000 0000 0000 0000 000000
2016-06-27 10:54:32,0.02,0.76,0.00,26.54,29.85,32.41,14.25,43.94,1018.76,2026.98,3204.03,2832.13,3207.00,599.93,590.11,59.51,0000 0000 0000 0000 000000
2016-06-27 10:59:33,-0.00,0.53,0.00,26.56,29.88,32.44,12.44,39.44,1019.00,2027.16,3300.17,2915.13,3303.31,529.13,520.60,0.01,0000 0000 0000 0000 000002
2016-06-27 11:04:35,0.00,0.00,0.00,26.60,29.90,32.45,14.27,46.18,1019.03,2027.27,3494.96,3081.96,3503.17,600.13,590.40,0.02,0000 0000 0000 0000 000000
2016-06-27 11:09:36,0.01,0.00,0.00,26.61,29.91,32.49,14.24,46.25,1019.05,2027.06,3490.59,3078.68,3499.42,599.84,589.99,0.07,0000 0000 0000 0000 000000
2016-06-27 11:14:37,0.02,0.01,0.00,26.63,29.92,32.53,14.31,46.15,1019.06,2027.03,3489.14,3077.76,3497.98,600.13,590.24,0.12,0000 0000 0000 0000 000000
2016-06-27 11:19:38,0.03,0.01,0.00,26.65,29.95,32.54,14.32,46.21,1019.06,2027.01,3487.68,3076.68,3496.59,599.94,590.14,0.18,0000 0000 0000 0000 000000
2016-06-27 11:24:40,0.04,0.01,0.00,26.65,29.96,32.56,14.29,46.21,1019.07,2027.00,3486.50,3075.98,3495.56,600.14,590.38,0.23,0000 0000 0000 0000 000000
2016-06-27 11:29:41,0.04,0.01,0.00,26.67,29.97,32.56,14.28,46.27,1019.09,2027.00,3485.84,3075.25,3494.85,600.30,590.57,0.28,0000 0000 0000 0000 000000
2016-06-27 11:34:42,0.02,0.02,0.00,26.66,29.99,32.57,14.28,46.20,1019.08,2027.00,3485.06,3075.00,3494.04,600.08,590.17,0.33,0000 0000 0000 0000 000000
2016-06-27 11:39:44,0.05,0.02,0.00,26.66,30.00,32.58,14.30,46.23,1019.10,2027.00,3484.26,3074.22,3493.21,600.26,590.46,0.38,0000 0000 0000 0000 000000
2016-06-27 11:44:45,0.02,0.02,0.00,26.67,30.01,32.60,14.29,46.15,1019.29,2027.00,3483.81,3073.92,3492.57,600.05,590.32,0.43,0000 0000 0000 0000 000000
2016-06-27 11:49:46,0.03,0.02,0.00,26.65,30.02,32.61,14.23,46.31,1019.44,2026.99,3482.83,3073.04,3491.66,599.68,590.04,0.48,0000 0000 0000 0000 000000
2016-06-27 11:54:47,0.19,0.03,0.00,26.62,30.02,32.63,14.35,46.36,1019.50,2026.98,3479.59,3070.20,3488.25,600.05,590.57,0.53,0000 0000 0000 0000 000000
2016-06-27 11:59:49,0.00,0.03,0.00,26.60,30.02,32.66,14.32,46.25,1019.53,2026.98,3479.01,3070.00,3487.95,600.04,590.55,0.58,0000 0000 0000 0000 000000
2016-06-27 12:04:50,0.00,0.03,0.00,26.57,30.02,32.65,14.30,46.18,1019.55,2026.97,3478.99,3070.00,3487.56,599.86,590.55,0.63,0000 0000 0000 0000 000000
2016-06-27 12:09:52,0.01,0.03,0.00,26.53,30.02,32.72,14.28,46.24,1019.55,2026.98,3478.92,3069.95,3487.12,599.76,590.47,0.68,0000 0000 0000 0000 000000
2016-06-27 12:14:53,-0.00,0.03,0.00,26.48,30.02,32.78,14.29,46.38,1019.55,2026.97,3478.76,3069.94,3487.04,599.99,590.84,0.73,0000 0000 0000 0000 000000
2016-06-27 12:19:54,0.01,0.03,0.00,26.43,30.02,32.81,14.32,46.33,1019.55,2026.98,3478.19,3069.78,3487.00,600.09,591.06,0.78,0000 0000 0000 0000 000000
2016-06-27 12:24:55,0.08,0.04,0.00,26.40,30.01,32.81,14.35,46.29,1019.55,2026.96,3477.30,3068.49,3485.71,599.81,590.87,0.83,0000 0000 0000 0000 000000
2016-06-27 12:29:57,0.00,0.04,0.00,26.36,30.00,32.91,14.41,46.35,1019.55,2026.96,3477.00,3068.03,3485.14,600.11,591.16,0.88,0000 0000 0000 0000 000000
2016-06-27 12:34:58,0.00,0.04,0.00,26.32,29.98,32.91,14.32,46.24,1019.55,2026.97,3476.99,3068.03,3485.10,599.95,591.10,0.93,0000 0000 0000 0000 000000
2016-06-27 12:39:59,0.00,0.04,0.00,26.29,29.97,32.93,14.34,46.32,1019.54,2026.98,3476.98,3068.03,3485.05,600.15,591.30,0.98,0000 0000 0000 0000 000000
2016-06-27 12:45:01,0.01,0.04,0.00,26.25,29.95,32.92,14.29,46.17,1019.55,2026.99,3476.73,3068.01,3485.01,599.87,591.08,1.03,0000 0000 0000 0000 000000
2016-06-27 12:50:02,0.01,0.04,0.00,26.23,29.93,32.90,14.42,46.43,1019.57,2026.99,3476.03,3067.99,3484.85,600.04,591.38,1.08,0000 0000 0000 0000 000000
2016-06-27 12:55:03,-0.00,0.04,0.00,26.23,29.92,32.93,14.42,46.48,1019.55,2026.99,3476.00,3067.98,3484.75,600.14,591.33,1.13,0000 0000 0000 0000 000000